Regional Weather Roundup
Issued by NWS

Home | Current Version | Previous Version | Graphics & Text | Print | Product List | Glossary On
Versions: 1 2 3 4 5 6 7 8 9 10 11 12 13 14 15 16 17 18 19 20 21 22 23 24 25 26 27 28 29 30 31 32 33 34 35 36 37 38 39 40 41 42 43 44 45 46 47 48 49 50
439
ASUS43 KTOP 161559
RWRKS

WEATHER ROUNDUP FOR KANSAS
NATIONAL WEATHER SERVICE GOODLAND KS
1000 AM CST SAT DEC 16 2017

NOTE:  "FAIR" INDICATES FEW OR NO CLOUDS BELOW 12,000 FEET WITH NO
SIGNIFICANT WEATHER AND/OR OBSTRUCTIONS TO VISIBILITY.

KSZ001>006-013>018-027>032-041>047-161700-
NORTHWEST KANSAS

CITY           SKY/WX    TMP DP  RH WIND       PRES   REMARKS
GOODLAND       CLOUDY    45  13  27 NE10      29.77R
HAYS           SUNNY     36  19  50 SW9       29.78S
HILL CITY      SUNNY     37  18  46 CALM      29.78R
RUSSELL        SUNNY     37  22  54 S10       29.78R WCI  30
$$

KSZ061>065-074>080-084>089-161700-
SOUTHWEST KANSAS

CITY           SKY/WX    TMP DP  RH WIND       PRES   REMARKS
DODGE CITY     SUNNY     41  22  46 S20       29.78R
GARDEN CITY    SUNNY     35  21  56 S9        29.74R
GREAT BEND     SUNNY     42  23  46 S12       29.81R
LIBERAL        SUNNY     39  21  48 SW16      29.77S WCI  30
$$

KSZ066>073-081>083-090>101-161700-
SOUTHEAST KANSAS

CITY           SKY/WX    TMP DP  RH WIND       PRES   REMARKS
CHANUTE        SUNNY     47  26  44 S21G29    29.96S
COFFEYVILLE    SUNNY     46  27  47 S18G24    30.01R
HUTCHINSON     SUNNY     43  27  53 S15       29.85S
MEDICINE LODGE   N/A     40  27  59 S10G20    29.87S WCI  33
NEWTON         SUNNY     45  26  47 S26       29.87R
PARSONS        SUNNY     47  27  45 S18       30.00R
WICHITA INTL   SUNNY     45  28  51 S18       29.89S
WICHITA JABRA  SUNNY     44  27  51 S18G29    29.89R
WICHITA MCCONL SUNNY     45  25  46 SW15      29.90R
WINFIELD       SUNNY     47  28  47 S15G25    29.95S
$$

KSZ007>012-019>026-033>040-048>060-102>105-161700-
NORTHEAST KANSAS

CITY           SKY/WX    TMP DP  RH WIND       PRES   REMARKS
CONCORDIA      SUNNY     41  23  48 S7        29.82R
EMPORIA        SUNNY     44  27  51 S9        29.89R
LAWRENCE       SUNNY     44  27  51 S8        29.91R
MANHATTAN      SUNNY     44  26  49 SW20      29.85S
OLATHE IND     SUNNY     45  27  49 S12G22    29.92R
OLATHE EXE     SUNNY     43  26  51 SW12G22   29.91R
SALINA         SUNNY     43  26  51 SW12      29.85R
TOPEKA BILLARD SUNNY    N/A N/A N/A SW9       29.89R
TOPEKA FORBES  SUNNY     44  27  51 SW12      29.89R
$$




USA.gov is the U.S. government's official web portal to all federal, state and local government web resources and services.